Location: T�bingen+AIT
(48.5342°N, 9.0700°E)
Time: 19:31:47
(UTC+01:00)

Cosmos 841 Rocket - Pass Details

Date: 14 September 2017
Orbit: 746 x 773 km, 74.0° (Epoch: 21 November)

Event Time Altitude Azimuth Distance (km) Brightness Sun altitude
Exits shadow 22:10:23 63° 81° (E) 838 3.4 -24.1°
Drops below altitude 10° 22:15:04 10° 28° (NNE) 2,273 6.0 -24.8°
Sets 22:17:27 0° 26° (NNE) 3,202 6.9 -25.1°
